Wind_Speed
38 35 33 32 30 27 27 28 27 23 21 19 13 6 6 11 26 22 24 22 22 23 23 27 30 29 28 26 21 23 20 20 18 18 16 17 16 14 11 11 10 11 9 10 9 9 10
38 39 34 29 26 27 29 27 26 21 21 18 12 5 10 10 20 21 25 27 26 28 25 26 29 28 27 22 21 23 20 18 17 17 16 14 12 12 9 7 9 7 8 7 8 10 12
39 36 35 34 28 32 32 33 30 29 23 23 27 23 17 17 34 39 30 30 29 30 27 27 27 25 19 22 24 22 20 18 17 16 15 13 11 9 7 7 7 7 7 7 10 12 16
37 38 38 37 30 28 33 28 31 33 39 38 37 39 29 29 32 33 33 32 31 26 23 23 22 22 20 22 22 23 21 19 16 14 12 11 9 8 6 6 6 6 6 9 11 13 16
34 36 36 38 36 30 29 28 38 40 35 33 33 33 33 34 35 34 32 31 29 25 22 22 21 20 22 22 20 21 19 16 14 12 11 10 10 8 8 7 6 5 2 4 14 19 20
29 31 33 34 34 35 34 29 31 34 35 32 31 31 31 33 32 30 29 27 23 21 23 23 21 16 20 20 18 17 16 15 12 12 11 11 11 10 9 8 2 4 6 8 10 21 25
26 26 28 30 30 29 29 27 22 29 28 26 26 25 25 27 27 28 26 25 22 21 14 10 13 18 19 17 16 15 14 14 13 11 11 10 9 11 9 8 10 9 11 12 11 22 25
24 24 24 26 28 29 28 25 20 21 22 21 22 21 20 21 21 22 20 20 15 14 16 15 20 17 18 16 16 15 14 14 13 12 11 10 9 7 6 6 8 9 9 10 16 16 25
21 22 22 23 23 24 25 27 23 20 18 14 13 14 15 16 16 16 11 14 13 12 16 15 13 12 12 11 11 12 11 10 9 9 9 7 2 5 6 7 7 9 10 12 17 21 17
21 21 21 20 21 21 19 19 21 22 20 17 15 12 11 12 13 11 13 15 12 8 7 8 9 9 10 10 9 8 7 7 7 6 5 4 6 6 7 7 6 6 10 14 18 17 7
24 22 21 20 20 18 17 16 15 16 16 15 14 12 10 10 10 12 14 11 7 4 3 5 5 8 8 5 10 7 6 6 4 5 6 3 4 5 7 7 7 9 12 15 17 13 9
28 25 23 22 20 18 17 15 12 11 10 9 8 7 7 8 7 11 10 4 2 3 3 5 6 7 7 5 6 5 4 4 4 4 4 5 6 7 7 7 8 10 10 13 8 5 2
28 29 27 24 23 23 19 16 15 14 12 10 6 2 2 5 6 8 3 1 2 3 5 6 5 7 5 4 4 4 4 4 2 2 4 6 8 10 10 10 7 4 8 1 3 2 3
25 26 28 27 26 24 22 21 17 14 13 12 10 7 2 3 5 6 5 4 1 1 6 6 7 6 3 4 3 4 3 1 3 3 3 3 5 5 4 5 4 6 2 3 3 2 5
21 23 25 25 27 27 26 23 20 16 12 10 10 11 9 5 1 4 6 4 1 6 4 8 8 5 3 3 2 3 4 7 4 5 4 3 5 5 7 6 4 1 1 1 4 4 4
18 17 19 21 22 24 26 24 22 19 15 10 7 7 9 9 4 1 4 4 4 5 11 11 3 4 1 3 2 2 3 4 5 5 4 2 5 6 4 6 7 9 3 1 1 2 4
13 14 14 16 17 20 22 25 24 20 17 13 9 4 5 6 6 3 1 1 6 8 8 6 5 5 6 4 5 3 5 5 5 4 5 5 6 4 6 4 5 6 6 5 4 4 2
11 13 14 14 15 16 17 21 23 23 20 15 12 6 6 4 4 3 3 3 4 7 5 4 4 4 6 5 4 5 6 7 3 6 7 6 5 6 8 10 9 11 8 7 3 2 6
11 11 13 15 15 15 17 19 20 21 22 20 13 8 8 5 4 1 1 1 3 5 4 3 3 4 4 4 3 6 6 5 7 7 4 3 3 4 6 7 6 11 10 13 15 16 15
11 12 12 13 14 16 16 16 17 19 21 22 19 11 9 5 4 4 4 4 5 6 6 6 5 5 5 6 7 5 5 5 6 8 10 11 11 12 7 4 11 16 17 16 18 13 14
13 14 14 14 13 14 16 16 16 20 22 23 20 13 10 9 6 5 5 6 6 5 6 6 5 6 7 5 5 8 9 9 8 10 11 11 15 16 20 22 22 26 29 27 30 33 21
17 16 16 16 16 15 14 13 16 21 22 22 20 14 11 7 6 6 5 4 6 6 7 7 8 7 6 6 9 8 10 12 11 11 12 13 13 17 27 22 15 22 24 27 31 34 38
20 20 19 19 18 17 17 14 16 20 25 24 21 16 10 8 8 5 6 6 5 5 6 6 6 5 7 8 10 11 13 15 17 19 18 17 13 10 11 12 20 23 7 7 11 17 19
23 22 21 20 22 18 20 19 17 18 24 25 22 18 13 9 7 10 8 7 7 9 10 9 9 9 8 10 11 13 15 17 19 21 21 19 15 11 15 13 3 7 10 14 17 12 10
25 25 25 22 22 23 19 19 20 21 24 22 21 20 14 12 8 7 7 9 8 6 8 9 9 10 11 11 11 10 13 12 9 12 16 18 20 9 6 6 19 19 10 7 9 11 17
28 27 27 27 25 24 23 23 25 26 26 25 21 19 16 13 13 9 11 10 11 12 15 12 10 9 12 14 12 5 4 5 6 6 8 10 12 15 6 6 5 8 14 15 16 20 21
31 31 29 28 28 26 27 28 29 29 28 26 24 20 16 14 13 12 14 16 16 12 11 16 15 16 15 15 16 13 12 13 8 9 10 12 15 26 24 11 14 22 21 20 9 9 11
34 32 32 31 30 30 28 30 30 30 27 24 19 20 18 18 17 14 13 13 16 16 18 21 21 20 14 13 10 10 12 12 15 16 18 16 12 14 15 11 14 13 14 13 14 17 21
34 34 33 33 34 32 34 34 34 26 23 23 21 20 18 20 19 21 20 20 22 24 27 26 22 17 12 10 11 10 14 14 17 16 19 17 18 15 18 16 20 19 15 18 24 33 38
Wind_Direction
40 45 54 46 57 58 65 66 70 80 83 88 104 116 145 173 184 164 169 142 147 145 149 155 144 152 158 168 175 180 181 182 179 177 187 185 185 180 191 197 212 235 250 261 264 264 272
42 48 56 53 54 62 69 76 79 81 82 81 79 135 187 180 188 190 163 143 141 134 143 143 141 149 160 162 168 174 177 179 178 176 181 185 194 190 200 211 228 252 248 250 257 270 280
48 46 46 47 57 68 72 78 85 77 70 76 78 90 100 130 115 128 132 127 126 127 137 142 139 145 155 158 160 169 171 172 172 169 175 177 185 198 216 221 227 232 242 260 268 280 284
52 51 48 45 56 60 85 76 89 78 92 88 78 92 104 96 102 112 115 117 114 119 131 132 129 141 139 151 159 160 165 165 166 165 173 177 187 202 202 214 212 228 262 284 288 283 291
51 52 48 50 55 70 65 87 96 94 91 89 92 95 100 102 102 104 109 108 109 117 126 124 125 128 137 144 150 152 154 162 166 169 177 179 182 185 195 213 226 248 260 297 288 297 299
49 48 49 51 53 55 58 65 84 91 90 88 90 94 98 100 103 107 107 105 110 120 119 112 125 122 143 144 149 152 156 161 167 174 176 179 185 190 201 205 190 188 245 268 300 295 305
41 48 48 49 51 55 61 63 63 61 76 87 92 95 100 105 109 109 107 113 125 124 123 117 124 133 141 147 151 157 161 164 170 176 179 182 195 208 216 228 247 257 274 293 291 290 302
36 36 45 47 48 51 57 67 67 73 89 95 98 101 103 105 106 108 116 127 125 121 113 116 127 138 141 148 157 166 169 171 176 178 183 190 210 220 238 253 265 279 295 293 303 304 313
33 34 34 42 44 49 57 66 69 76 83 81 93 101 108 110 108 115 108 110 106 114 102 105 117 132 140 146 149 160 163 170 167 180 195 209 244 246 260 262 282 301 303 306 308 313 316
35 35 36 35 43 45 50 59 63 64 69 76 80 81 96 105 111 114 112 110 104 105 93 111 117 119 132 139 139 153 165 170 180 195 203 236 244 245 256 274 291 298 305 308 309 314 304
39 39 39 39 37 42 46 48 54 60 60 61 66 75 84 101 118 129 129 124 106 86 88 140 117 135 142 143 148 158 171 185 194 204 209 239 252 250 263 280 296 293 299 303 300 302 312
40 39 41 44 43 41 41 42 41 37 35 36 40 59 91 115 127 139 135 120 12 341 77 145 147 145 148 140 153 163 175 185 195 217 238 253 256 257 265 268 283 292 302 309 321 333 314
42 42 40 41 43 43 42 42 39 43 51 52 46 51 119 141 146 152 168 243 324 38 154 155 161 158 154 145 152 162 174 182 211 226 238 253 255 255 260 272 276 303 332 353 342 349 222
37 41 42 41 42 40 39 39 42 41 40 47 50 50 66 214 217 226 240 227 337 277 171 162 155 153 153 151 147 158 158 170 208 226 231 249 276 246 239 242 264 323 25 86 213 326 298
29 34 39 44 43 41 41 38 36 37 39 42 49 48 49 49 170 205 201 211 234 156 177 153 145 140 164 180 178 189 216 226 242 232 207 234 266 275 264 259 268 332 30 268 272 291 298
25 28 32 34 37 37 37 36 35 32 30 30 34 38 44 44 56 135 211 265 201 178 157 154 114 150 308 201 195 193 263 270 232 229 230 271 274 291 280 265 253 238 237 165 318 34 292
12 17 18 24 25 23 26 28 28 29 27 21 13 12 24 30 29 18 299 185 158 158 164 176 173 170 191 215 203 221 245 258 231 228 241 280 259 271 285 254 258 229 226 221 228 222 230
351 351 357 358 2 8 13 15 18 21 24 21 17 358 353 351 7 21 63 111 156 169 191 214 207 219 208 214 232 236 226 239 251 240 261 276 268 257 280 286 264 255 226 226 231 188 239
330 335 334 339 346 351 351 358 6 11 16 23 19 14 359 337 323 36 60 160 183 210 230 241 242 237 233 233 259 251 253 256 263 271 279 278 274 310 275 276 268 251 250 239 217 252 242
315 317 321 323 328 335 342 352 2 8 7 8 12 6 355 345 335 309 288 258 251 247 245 248 254 258 254 266 267 270 280 276 276 269 270 277 260 240 242 260 286 280 277 271 242 244 241
306 309 313 315 320 326 332 339 352 359 5 5 3 357 352 335 330 310 280 277 276 261 257 264 266 259 259 266 280 277 279 285 287 288 284 282 277 277 273 278 279 277 274 264 255 259 247
298 303 308 312 316 319 321 326 333 343 354 359 360 356 341 333 323 307 296 290 282 275 274 275 277 278 271 263 255 276 290 296 288 295 287 280 280 290 291 300 288 284 280 270 262 255 260
294 298 303 307 310 314 313 315 321 333 342 347 352 348 334 321 322 314 299 285 274 265 276 280 274 268 274 282 283 284 287 283 275 280 282 281 283 296 289 292 299 295 293 285 279 266 256
289 290 292 299 302 307 309 311 320 328 333 334 339 341 332 304 298 311 297 280 272 270 270 269 270 273 297 291 284 285 286 280 273 268 261 258 272 269 283 313 252 284 285 275 286 273 258
285 289 291 290 293 299 301 305 310 318 323 323 327 333 317 300 287 272 285 292 284 284 283 277 270 279 286 290 299 311 312 304 284 269 258 245 239 254 263 263 285 289 286 301 259 261 282
281 282 286 289 290 291 298 304 308 310 316 314 313 319 315 303 288 285 277 256 265 287 294 283 279 285 294 294 298 272 254 289 282 276 260 254 237 214 235 247 255 285 294 290 279 282 280
277 279 281 282 285 288 298 305 306 308 312 311 303 302 302 291 290 281 270 281 285 275 265 275 275 281 281 281 270 259 262 254 249 249 265 242 234 229 238 252 265 279 283 292 270 281 248
273 275 278 279 279 284 294 301 304 307 306 308 305 298 299 291 293 285 277 275 263 268 276 278 290 288 278 256 250 249 243 241 250 246 267 273 260 236 225 229 253 266 274 254 269 286 284
267 270 273 275 277 281 287 296 298 297 301 302 300 297 290 296 290 291 286 274 272 275 273 272 271 271 267 262 248 244 249 257 260 265 269 254 261 249 241 263 273 283 274 281 283 286 290
Height
3071 3064 3059 3055 3049 3046 3042 3040 3039 3038 3038 3038 3040 3042 3044 3047 3046 3052 3056 3061 3067 3071 3076 3082 3084 3090 3097 3105 3110 3115 3119 3123 3126 3129 3134 3136 3139 3141 3144 3145 3147 3148 3150 3150 3151 3152 3151
3078 3071 3065 3061 3056 3052 3050 3048 3047 3046 3045 3045 3043 3043 3043 3048 3052 3056 3062 3065 3070 3074 3081 3086 3088 3093 3100 3106 3110 3115 3120 3124 3127 3130 3133 3136 3140 3141 3144 3145 3146 3147 3148 3148 3149 3150 3149
3085 3079 3074 3069 3065 3060 3058 3056 3054 3053 3051 3051 3048 3046 3048 3055 3055 3060 3068 3071 3075 3079 3086 3090 3091 3096 3103 3107 3110 3117 3121 3125 3128 3131 3134 3136 3140 3142 3143 3145 3146 3146 3147 3147 3148 3147 3146
3092 3088 3083 3077 3073 3071 3065 3063 3062 3061 3060 3061 3060 3059 3065 3063 3064 3069 3073 3078 3081 3087 3093 3095 3096 3100 3103 3108 3114 3117 3121 3126 3129 3131 3135 3136 3139 3141 3143 3145 3145 3146 3146 3145 3145 3145 3145
3099 3095 3091 3087 3083 3079 3077 3073 3071 3070 3070 3070 3070 3070 3072 3073 3075 3078 3081 3083 3088 3093 3098 3098 3100 3104 3108 3112 3116 3120 3124 3127 3130 3132 3135 3136 3139 3140 3143 3145 3146 3145 3145 3144 3142 3141 3141
3105 3102 3098 3094 3091 3088 3086 3083 3081 3078 3077 3078 3079 3080 3081 3081 3083 3086 3087 3090 3095 3101 3102 3101 3105 3109 3112 3115 3119 3122 3125 3128 3130 3133 3135 3137 3138 3139 3142 3144 3145 3143 3143 3143 3141 3138 3136
3111 3107 3104 3101 3098 3096 3094 3093 3090 3085 3087 3087 3087 3088 3088 3089 3090 3091 3093 3096 3104 3106 3104 3105 3108 3110 3113 3117 3120 3123 3126 3128 3130 3133 3134 3136 3138 3139 3142 3143 3144 3143 3142 3139 3139 3135 3134
3115 3112 3109 3107 3104 3102 3100 3098 3096 3095 3094 3094 3094 3094 3094 3095 3096 3097 3099 3103 3105 3107 3107 3108 3110 3113 3114 3117 3121 3123 3126 3129 3130 3132 3134 3137 3138 3140 3139 3141 3142 3140 3138 3136 3135 3134 3130
3120 3117 3113 3111 3109 3108 3106 3104 3103 3101 3100 3099 3099 3099 3099 3099 3100 3103 3104 3106 3107 3109 3110 3113 3114 3115 3118 3121 3122 3124 3127 3128 3130 3133 3134 3135 3137 3136 3138 3140 3139 3137 3135 3135 3133 3130 3127
3124 3121 3118 3115 3113 3112 3110 3109 3108 3107 3105 3104 3104 3104 3104 3104 3106 3106 3108 3109 3110 3112 3113 3117 3117 3118 3120 3121 3124 3126 3127 3130 3131 3132 3133 3134 3134 3136 3137 3137 3137 3135 3134 3132 3130 3128 3127
3130 3125 3123 3120 3117 3115 3114 3112 3111 3111 3110 3109 3107 3106 3106 3107 3108 3109 3111 3112 3112 3113 3115 3120 3119 3119 3120 3124 3125 3126 3127 3129 3130 3131 3133 3134 3134 3135 3135 3136 3135 3134 3132 3131 3128 3125 3124
3134 3131 3127 3124 3122 3119 3117 3116 3114 3113 3112 3111 3111 3110 3110 3111 3112 3112 3113 3113 3114 3116 3116 3118 3119 3120 3122 3122 3124 3125 3127 3129 3130 3130 3130 3132 3133 3134 3134 3134 3133 3133 3131 3127 3125 3123 3124
3140 3136 3133 3129 3125 3123 3121 3119 3117 3115 3114 3113 3113 3113 3113 3113 3114 3115 3115 3116 3117 3115 3118 3119 3119 3120 3121 3123 3125 3126 3127 3128 3129 3130 3130 3131 3131 3132 3132 3132 3131 3130 3128 3126 3128 3125 3124
3146 3142 3138 3135 3131 3127 3124 3122 3121 3119 3117 3116 3115 3114 3114 3114 3115 3116 3116 3117 3116 3116 3116 3118 3119 3121 3123 3124 3125 3126 3127 3127 3128 3129 3130 3130 3129 3129 3129 3129 3129 3127 3127 3127 3133 3131 3123
3149 3146 3143 3140 3137 3133 3130 3126 3123 3121 3120 3118 3117 3117 3115 3115 3115 3115 3117 3116 3116 3116 3118 3119 3121 3122 3123 3124 3126 3126 3126 3127 3127 3128 3130 3129 3128 3127 3127 3127 3128 3127 3127 3128 3127 3126 3125
3151 3150 3147 3144 3141 3138 3134 3131 3127 3124 3122 3121 3120 3119 3117 3117 3116 3116 3117 3116 3116 3117 3118 3120 3122 3123 3124 3124 3126 3126 3125 3126 3126 3127 3127 3127 3127 3124 3124 3125 3125 3126 3128 3128 3127 3129 3127
3150 3150 3148 3146 3144 3140 3138 3135 3131 3127 3124 3121 3121 3120 3119 3118 3118 3118 3117 3116 3117 3118 3120 3121 3121 3122 3123 3124 3124 3125 3125 3125 3124 3125 3125 3125 3126 3125 3124 3123 3122 3124 3124 3125 3126 3126 3126
3150 3149 3147 3145 3144 3142 3139 3136 3133 3131 3126 3124 3121 3121 3120 3119 3121 3118 3118 3118 3119 3120 3121 3121 3122 3122 3123 3123 3123 3124 3124 3123 3123 3124 3123 3124 3123 3122 3122 3121 3121 3121 3122 3123 3125 3125 3123
3151 3149 3147 3145 3143 3140 3139 3137 3134 3131 3129 3125 3123 3121 3121 3120 3119 3119 3119 3119 3119 3120 3121 3121 3121 3122 3122 3122 3124 3122 3122 3122 3122 3122 3121 3122 3121 3121 3119 3120 3118 3118 3119 3121 3122 3121 3118
3150 3149 3147 3145 3143 3141 3138 3136 3135 3132 3130 3127 3124 3122 3121 3120 3119 3119 3119 3119 3119 3120 3120 3120 3121 3121 3121 3121 3122 3121 3120 3121 3121 3121 3121 3120 3119 3119 3118 3118 3117 3116 3117 3117 3117 3115 3111
3146 3146 3146 3145 3143 3141 3138 3135 3133 3132 3129 3128 3125 3124 3122 3120 3119 3119 3119 3119 3119 3119 3119 3120 3119 3120 3120 3120 3120 3119 3119 3118 3118 3118 3117 3117 3115 3115 3114 3113 3113 3111 3109 3110 3107 3106 3105
3143 3141 3141 3141 3141 3140 3138 3136 3133 3130 3129 3127 3125 3124 3121 3120 3119 3118 3117 3118 3117 3118 3119 3119 3119 3119 3119 3119 3119 3118 3117 3117 3115 3115 3114 3114 3112 3110 3107 3108 3105 3102 3101 3099 3097 3097 3095
3141 3139 3138 3138 3137 3136 3136 3134 3133 3130 3128 3126 3124 3122 3121 3119 3118 3118 3117 3116 3116 3116 3117 3117 3116 3116 3117 3117 3116 3116 3115 3114 3113 3111 3111 3110 3109 3108 3102 3102 3100 3095 3090 3089 3088 3089 3091
3137 3136 3135 3133 3133 3131 3132 3132 3130 3128 3127 3124 3123 3121 3120 3118 3117 3116 3116 3115 3115 3115 3115 3115 3115 3114 3115 3114 3113 3112 3111 3109 3108 3107 3107 3107 3107 3108 3101 3099 3098 3089 3088 3087 3085 3085 3084
3131 3132 3132 3129 3128 3128 3127 3127 3127 3125 3124 3122 3120 3120 3117 3116 3115 3114 3114 3114 3113 3113 3113 3112 3111 3111 3110 3110 3110 3108 3106 3104 3102 3101 3101 3103 3105 3105 3102 3098 3091 3086 3083 3083 3081 3082 3080
3125 3125 3126 3126 3124 3122 3122 3122 3121 3121 3120 3118 3116 3115 3114 3114 3113 3112 3111 3110 3110 3110 3109 3109 3109 3109 3108 3107 3107 3106 3105 3103 3101 3099 3098 3099 3100 3104 3100 3097 3090 3082 3080 3079 3078 3074 3073
3119 3119 3119 3119 3119 3118 3118 3116 3116 3114 3113 3113 3111 3110 3109 3109 3110 3109 3109 3108 3108 3107 3106 3104 3105 3105 3104 3103 3102 3101 3100 3100 3098 3095 3094 3094 3093 3091 3092 3092 3083 3077 3075 3075 3075 3073 3068
3111 3112 3112 3112 3112 3112 3111 3111 3111 3109 3107 3106 3106 3105 3105 3104 3104 3103 3103 3103 3103 3103 3102 3101 3102 3099 3098 3098 3098 3096 3094 3093 3092 3091 3090 3090 3089 3086 3086 3086 3078 3072 3071 3073 3070 3065 3064
3102 3103 3104 3104 3104 3104 3104 3104 3103 3103 3102 3100 3099 3098 3098 3098 3099 3098 3097 3097 3097 3097 3096 3095 3096 3095 3094 3094 3093 3092 3091 3088 3086 3084 3084 3083 3082 3080 3079 3072 3070 3068 3066 3066 3064 3061 3057